Location: Lisów
(50.7299°N, 18.7989°E)
Time: 14:51:11
(UTC+00:00)

Daily predictions for brighter satellites

Satellite Brightness Start Highest point End
(mag) Time Altitude Azimuth Time Altitude Azimuth Time Altitude Azimuth
ATLAS 2AS CENTAUR R/B 2.7 18:44:01 10° SW 18:50:58 79° SE 18:57:49 10° NE
Cosmos 2100 Rocket 4.3 18:45:23 10° SSE 18:51:21 51° E 18:57:25 10° NNE
Ariane Rocket 4.4 18:53:12 10° ESE 18:57:11 24° ENE 19:01:10 10° N
ISS -1.8 18:56:41 10° SSE 18:58:07 12° SE 18:59:34 10° ESE
ADEOS 3.6 18:53:50 10° SSE 18:59:03 81° ENE 19:04:18 10° NNW
Cosmos 2322 Rocket 4.4 18:57:14 10° N 19:00:23 15° NNE 19:03:33 10° ENE
Spot 2 Rocket 3.7 18:57:56 10° SSE 19:02:49 57° ENE 19:07:46 10° N
Cosmos 2082 Rocket 3.6 19:00:47 10° SE 19:04:38 19° E 19:08:29 10° ENE
Cosmos 2151 Rocket 3.5 19:02:44 10° S 19:07:05 84° E 19:11:30 10° NNE
SL-4 R/B 2.7 19:04:08 10° W 19:07:40 37° SSW 19:11:17 10° SE
Okean 2 Rocket 3.1 19:05:05 10° S 19:09:31 68° E 19:14:00 10° NNE
BREEZE-M DEB (TANK) 4.4 19:07:53 10° WSW 19:12:47 81° SSE 19:34:42 10° ENE
Cosmos 1371 Rocket 4.3 19:09:13 10° SSW 19:14:31 75° WNW 19:19:53 10° NNE
Cosmos 1536 Rocket 3.9 19:10:13 10° NNW 19:14:33 66° W 19:18:52 10° S
IRS-1A Rocket 4.4 19:09:41 10° SSE 19:15:29 89° WSW 19:21:25 10° NNW
Cosmos 292 Rocket 3.9 19:13:20 10° NNW 19:18:07 74° WSW 19:22:50 10° SSE
CZ-4C R/B 2.1 19:18:33 10° S 19:22:28 40° ESE 19:27:21 10° NE
Cosmos 2228 4.0 19:19:24 11° SE 19:22:42 27° E 19:26:12 10° NNE
Cosmos 1725 Rocket 4.2 19:17:55 10° SSE 19:24:00 56° E 19:30:05 10° NNE
Cosmos 1697 Rocket 3.2 19:18:29 10° NW 19:24:01 58° WSW 19:29:30 10° S
Okean O Rocket 1.5 19:20:32 10° SSE 19:24:49 81° ENE 19:29:09 10° NNW
USA 305 3.1 19:21:15 10° WNW 19:25:18 60° NNE 19:29:01 10° E
ATLAS 3B R/B 3.2 19:18:45 10° NW 19:26:31 70° SW 19:33:32 11° SSE
ERS-1 Rocket 3.9 19:22:07 10° S 19:26:57 48° W 19:31:49 10° NNW
Cosmos 1741 Rocket 4.1 19:22:23 10° NNW 19:27:44 87° ENE 19:32:45 12° SSE
SL-16 R/B 3.7 19:23:07 10° NNW 19:27:51 26° NE 19:32:35 10° E
Cosmos 1452 Rocket 3.8 19:23:39 10° S 19:28:38 47° ESE 19:33:39 10° NNE
Helios 1A Rocket 3.4 19:26:00 10° N 19:29:04 45° WNW 19:32:04 10° SW
USA 186 1.2 19:28:18 14° SSE 19:30:31 83° ENE 19:33:14 10° NNW
Cosmos 1867 4.0 19:25:39 10° SW 19:31:04 69° NW 19:36:33 10° NE
Okean-O 2.7 19:33:16 10° S 19:37:38 79° WSW 19:42:03 10° NNW
Cosmos 1331 Rocket 3.9 19:32:43 10° SSW 19:37:56 77° ESE 19:43:10 10° NNE
Cosmos 968 Rocket 4.2 19:33:29 10° NNW 19:38:33 50° WSW 19:43:35 10° S
Cosmos 2333 Rocket 3.6 19:35:45 10° NNW 19:40:39 28° NE 19:45:33 10° ESE
Cosmos 1892 Rocket 3.5 19:38:13 10° N 19:42:35 88° ENE 19:46:26 13° S
CZ-4B R/B 3.6 19:39:17 15° SE 19:43:00 54° ENE 19:47:41 10° N
Cosmos 2016 Rocket 4.0 19:36:52 10° S 19:43:06 69° E 19:49:17 10° NNE
Cosmos 2173 Rocket 4.2 19:39:23 10° SSW 19:45:30 74° WNW 19:51:45 10° N
Cosmos 1302 Rocket 4.4 19:41:39 10° S 19:46:28 41° ESE 19:51:19 10° NE
USA 245 4.4 19:42:23 13° SSE 19:47:38 77° ENE 19:53:28 10° NNW
Cosmos 1455 Rocket 3.0 19:43:46 10° S 19:48:10 77° E 19:52:35 10° NNE
Cosmos 2061 Rocket 4.2 19:44:57 11° SSE 19:50:36 52° E 19:56:40 10° NNE
SL-08 R/B 3.7 19:46:00 10° N 19:50:51 67° WNW 19:55:36 10° SSW
Cosmos 1980 Rocket 2.3 19:46:29 10° NNW 19:52:12 75° WSW 19:56:48 16° SSE
Okean 1 Rocket 4.0 19:50:03 10° SSW 19:54:18 50° WNW 19:58:37 10° N
Cosmos 724 4.4 19:48:28 10° SSW 19:54:19 54° ESE 20:00:04 10° NE
SPOT 3 Rocket 3.5 19:53:56 16° SSE 19:58:07 84° ENE 20:03:17 10° NNW
CZ-4 R/B 4.1 19:58:40 10° WSW 19:59:50 11° W 20:00:58 10° WNW
CZ-4B R/B 2.3 19:58:30 22° SSE 20:00:32 87° E 20:03:57 10° NNW
Cosmos 1544 Rocket 4.5 19:58:36 21° SE 20:00:39 31° E 20:04:29 10° NNE
Cosmos 1782 2.4 19:59:06 14° S 20:02:02 83° E 20:05:34 10° NNE
Cosmos 1933 4.4 20:09:27 23° ESE 20:10:25 26° E 20:13:37 10° NNE
Cosmos 1802 Rocket 4.3 20:05:51 10° SSW 20:12:01 67° WNW 20:18:10 10° N
Cosmos 2084 Rocket 3.4 20:07:57 10° NW 20:12:10 79° NE 20:14:32 25° SE
Cosmos 1833 Rocket 4.1 20:06:57 10° WSW 20:12:15 41° NW 20:17:34 10° NNE
Terra 4.0 20:10:22 10° SW 20:13:52 21° W 20:17:24 10° NW
Cosmos 1758 Rocket 3.7 20:10:03 10° N 20:14:22 58° ENE 20:16:41 26° SSE
IRS-1C Rocket 4.1 20:10:56 19° SSE 20:14:45 89° WSW 20:20:04 10° NNW
Gbstr 26 Del rocket 3.6 20:12:15 10° WNW 20:16:57 44° SSW 20:18:53 27° SSE
Cosmos 2360 Rocket 3.5 20:13:12 10° NNW 20:18:13 31° NE 20:22:30 13° ESE
NOSS 3-3 (C) 4.3 20:15:34 19° S 20:18:37 35° ESE 20:24:06 10° NE
Helios 1B rocket 4.0 20:17:54 15° E 20:19:12 17° ENE 20:21:35 10° NNE
CZ-2C R/B 1.8 20:23:39 44° S 20:24:24 80° WSW 20:27:12 10° NNW
Cosmos 1743 4.2 20:24:03 10° NW 20:26:30 23° W 20:28:34 12° SW
Cosmos 2237 4.2 20:22:00 10° NNW 20:27:46 83° WSW 20:31:12 25° SSE
Geosat 4.3 20:24:52 10° NE 20:29:40 46° ESE 20:32:22 24° S
NOSS 3-4 (A) 4.3 20:25:57 10° NW 20:32:12 52° NE 20:38:37 14° ESE
NOSS 3-4 (C) 4.3 20:26:32 10° NW 20:32:49 52° NE 20:39:16 14° ESE
Cosmos 44 Rocket 3.7 20:27:50 10° SW 20:32:54 71° NW 20:38:08 10° NE
ISS -3.7 20:31:04 10° SW 20:34:19 50° SSE 20:35:05 40° ESE
Ariane Rocket 3.3 20:32:21 21° S 20:35:40 61° WSW 20:40:43 10° NNW
Cosmos 2219 Rocket 3.7 20:30:55 10° NNW 20:35:45 28° NE 20:40:07 12° E
Cosmos 1602 Rocket 3.6 20:35:48 10° N 20:40:05 61° ENE 20:41:43 35° SE
ATLAS 2AS CENTAUR R/B 4.1 20:36:01 10° W 20:42:27 40° NNW 20:48:49 10° NE
Cosmos 2369 4.0 20:37:35 10° NW 20:43:12 59° WSW 20:46:24 26° S
Cosmos 2322 Rocket 2.9 20:40:29 10° NNW 20:45:56 46° NE 20:49:17 22° ESE
Cosmos 2082 Rocket 2.2 20:42:15 10° SSW 20:47:58 85° WNW 20:53:45 10° NNE
Cosmos 1437 Rocket 2.5 20:47:59 49° SSE 20:48:40 62° E 20:52:12 10° NNE
USA 305 2.6 20:46:47 10° WNW 20:50:43 51° SW 20:51:08 48° S
Cosmos 909 Rocket 3.9 20:44:36 10° SSW 20:50:54 76° SE 20:57:25 10° NE
Cosmos 1891 Rocket 4.4 20:46:58 23° S 20:50:58 80° E 20:57:03 10° NNE
Cosmos 2151 2.9 20:47:11 10° NNW 20:51:20 76° W 20:52:53 36° S
USA 234 3.8 20:47:33 10° ENE 20:53:23 33° SE 20:55:31 27° SSE
Meteor 1-5 Rocket 4.4 20:49:41 10° N 20:55:18 65° ENE 20:58:02 31° SSE
Cosmos 1626 Rocket 4.2 20:53:47 10° NNW 20:57:59 48° W 21:00:05 26° SSW
Cosmos 1607 4.0 20:53:14 10° SW 20:59:24 80° NW 21:05:44 10° NE
Okean O Rocket 4.1 20:59:35 10° WSW 21:01:35 13° W 21:03:35 10° WNW
Cosmos 2278 3.7 20:59:21 10° NNW 21:05:07 78° ENE 21:07:47 33° SE
Cosmos 1777 Rocket 4.2 21:01:42 10° NNW 21:06:55 61° ENE 21:09:08 33° SE
Okean 1-7 Rocket 3.6 21:04:02 10° N 21:08:30 73° E 21:09:50 44° SSE
Cosmos 1992 Rocket 4.1 21:05:58 17° SSW 21:10:00 75° WNW 21:15:14 10° NNE
CZ-4C R/B 3.1 21:06:15 10° WSW 21:10:35 44° NNW 21:16:11 10° NE
IKONOS-2 4.4 21:06:42 10° NNE 21:10:50 69° ESE 21:11:49 48° SSE
COSMOS 2406 3.1 21:07:30 24° SSW 21:11:02 76° ESE 21:16:48 10° NNE
Cosmos-2242 4.4 21:11:13 23° E 21:11:28 23° E 21:14:45 10° NE
Helios 1A 2.8 21:08:25 10° NNE 21:12:20 66° ESE 21:13:02 53° SSE
SL-16 R/B 2.2 21:06:52 10° NNW 21:12:34 78° WSW 21:14:58 36° SSE
Nadezhda 4 Rocket 3.9 21:09:17 10° N 21:15:26 86° E 21:18:18 34° SSE
Cosmos 1606 Rocket 3.6 21:15:48 48° SSE 21:16:46 62° E 21:21:04 10° NNE
Cosmos 1805 2.7 21:14:38 10° NNW 21:17:54 72° W 21:18:02 70° SW
Cosmos 1486 Rocket 4.0 21:13:21 10° NNW 21:18:38 83° ENE 21:20:37 40° SSE
USA 290 4.4 21:24:21 16° ENE 21:24:21 16° ENE 21:25:26 10° NE
Cosmos 2333 Rocket 2.2 21:19:47 10° NNW 21:25:28 71° WSW 21:27:39 38° S
CSL-04 DEB 3.9 21:26:07 71° SE 21:26:26 80° ENE 21:30:03 10° NNW
Cosmos 2098 Rocket 3.3 21:25:32 36° SSW 21:27:41 80° WNW 21:32:17 10° N
SeaSat 1 4.2 21:24:17 11° E 21:28:00 26° NE 21:32:00 10° NNW
Cosmos 1766 4.0 21:25:45 10° N 21:28:33 31° ENE 21:28:33 31° ENE
Cosmos 1726 Rocket 3.4 21:29:27 55° SE 21:29:55 60° E 21:33:55 10° NNE
Cosmos 2195 Rocket 4.4 21:27:15 10° N 21:33:34 81° E 21:36:10 38° SSE
Cosmos 1076 Rocket 3.4 21:29:56 10° N 21:34:14 82° E 21:35:03 58° SSE
Cosmos 1980 Rocket 4.4 21:32:29 10° WNW 21:35:11 14° W 21:37:53 10° SW
CZ-2C R/B 4.2 21:34:56 17° ESE 21:37:47 26° ENE 21:42:03 10° N
Cosmos 2026 Rocket 4.0 21:33:41 10° N 21:40:05 78° E 21:42:46 38° SSE
NOSS 3-3 (A) 4.1 21:35:49 10° SW 21:41:07 68° NW 21:47:35 10° NE
Spot 4 3.8 21:44:25 47° SE 21:45:42 72° ENE 21:50:29 10° N
DNEPR-1 R/B 4.3 21:41:36 10° NW 21:47:00 72° SW 21:49:20 40° SSE
Aureole 1 Rocket 4.3 21:43:56 10° NNW 21:48:58 51° ENE 21:51:56 28° ESE
Okean 1 3.0 21:49:59 70° WSW 21:50:08 72° W 21:53:43 10° N
Helios 1B rocket 2.6 21:51:51 44° WSW 21:51:53 44° W 21:55:17 10° NNW
SAR-Lupe-2 3.9 21:53:25 51° ENE 21:53:25 51° ENE 21:56:33 10° N
Cosmos 1975 4.3 21:50:35 10° NNE 21:53:33 22° ENE 21:54:01 22° E
Cosmos 2333 4.1 21:49:56 10° NNW 21:55:40 82° WSW 21:57:35 44° SSE
Cosmos 44 4.3 21:51:15 10° NW 21:56:30 48° NE 21:59:52 21° ESE
Cosmos 1464 Rocket 4.3 21:53:23 26° SW 21:56:47 58° WNW 22:02:53 10° N
Cosmos 2360 Rocket 2.3 21:56:59 10° NW 22:02:37 63° WSW 22:04:14 44° S
Cosmos 1271 Rocket 4.1 22:04:45 23° ENE 22:04:45 23° ENE 22:06:58 10° NE
Meteor 1-26 Rocket 4.1 22:03:06 46° S 22:04:47 80° E 22:10:25 10° NNE
RESURS DK-1 4.2 22:03:38 10° N 22:06:56 24° NE 22:09:02 16° E
ALOS 2 2.5 22:06:32 63° S 22:07:14 87° WSW 22:11:40 10° NNW
ARIANE 5 R/B 2.6 22:07:11 59° SSW 22:07:54 72° WSW 22:12:22 10° NNW
NOSS 3-3 (C) 4.4 22:03:49 10° WSW 22:09:10 57° NW 22:15:41 10° NE
Cosmos 1953 Rocket 3.8 22:05:51 10° NNW 22:10:08 56° W 22:10:47 50° SW
ISS -1.2 22:07:44 10° W 22:08:15 14° W 22:08:15 14° W
GP-B 4.2 22:07:29 10° NNE 22:11:24 31° E 22:12:04 29° E
Cosmos 2058 Rocket 2.9 22:11:46 66° SSE 22:12:18 80° E 22:16:40 10° NNE
BREEZE-M R/B 4.0 22:10:57 10° W 22:18:14 79° SSW 22:24:09 10° ESE
Cosmos 1092 Rocket 4.0 22:12:30 10° NNW 22:18:37 69° W 22:20:51 41° SSW
CZ-2C R/B 3.8 22:14:39 10° N 22:19:03 68° WNW 22:20:05 49° SW
Helios 1B 4.4 22:15:09 10° NNE 22:19:25 72° ESE 22:19:49 66° SSE
Cosmos 2219 Rocket 2.2 22:14:34 10° NNW 22:20:12 72° WSW 22:21:47 48° S
NOSS 3-4 (A) 4.0 22:16:45 10° NW 22:23:17 55° SW 22:26:00 38° S
NOSS 3-4 (C) 4.0 22:17:20 10° NW 22:23:55 55° SW 22:26:40 38° S
Cosmos 540 Rocket 3.3 22:23:21 51° SSW 22:24:41 86° ESE 22:29:51 10° NNE
PSLV R/B 3.4 22:21:01 10° NNE 22:25:16 83° ESE 22:25:44 69° S
Meteor 1-14 Rocket 4.3 22:20:03 10° N 22:25:38 69° ENE 22:27:27 42° SE
Cosmos 1898 Rocket 4.0 22:21:06 10° NNW 22:26:11 53° ENE 22:28:15 33° ESE
Cosmos 1461 3.2 22:26:33 45° W 22:27:14 53° NW 22:30:51 10° NNE
Cosmos 2322 Rocket 2.9 22:24:42 10° NW 22:29:53 38° WSW 22:31:03 34° SW
MetOp-A 3.9 22:29:01 52° SSE 22:30:17 84° ENE 22:35:10 10° NNW
Cosmos 2082 Rocket 4.4 22:28:27 10° W 22:32:54 23° NW 22:37:22 10° NNE
SL-08 ROCKET BODY 4.4 22:30:07 10° N 22:36:16 82° W 22:38:25 44° S
USA 234 3.2 22:30:21 10° ENE 22:36:57 87° SSE 22:42:49 14° WSW
Cosmos 1707 3.7 22:38:21 30° NW 22:38:21 30° NW 22:40:18 10° N
Cosmos 1536 3.3 22:34:47 10° NNW 22:38:06 44° W 22:38:06 44° W
Meteor 2-9 Rocket 4.0 22:34:32 10° N 22:39:55 82° ENE 22:41:29 48° SSE
ACS3 Solar Sail 3.1 22:36:44 10° NNE 22:41:46 27° E 22:44:07 21° ESE
COSMOS 2428 2.9 22:38:10 10° NNW 22:43:52 67° ENE 22:46:33 32° SE
Cosmos 2237 Rocket 3.5 22:42:00 10° NNW 22:47:17 37° NE 22:52:25 10° ESE
Cosmos 1763 Rocket 3.9 22:45:39 35° SW 22:47:43 60° WNW 22:52:58 10° NNE
TSX-5 3.9 22:44:53 10° NNW 22:47:24 52° N 22:47:24 52° N
Cosmos-2242 3.8 22:47:28 35° W 22:48:14 38° WNW 22:52:08 10° N
CZ-2C R/B 3.2 22:44:25 10° NNE 22:50:07 79° ESE 22:51:56 46° S
ARGOS Delta rocket 4.4 22:49:35 10° N 22:54:26 54° WNW 22:56:07 38° SW
SL-16 R/B 4.2 22:52:49 10° WNW 22:55:42 14° W 22:56:47 14° WSW
USA 290 3.9 22:56:48 27° WNW 22:56:56 27° WNW 22:59:42 10° N
CZ-4C R/B 4.2 22:55:13 10° NNE 22:57:47 30° E 22:57:47 30° E
Cosmos 1634 Rocket 4.4 22:57:50 32° SW 23:00:29 52° WNW 23:06:32 10° N
Cosmos 1238 Rocket 4.1 23:01:17 26° E 23:01:33 26° E 23:04:53 10° NNE
Cosmos 2227 Rocket 4.4 23:00:23 10° ESE 23:02:11 12° E 23:03:58 10° ENE
Cosmos 2279 Rocket 4.1 23:01:48 38° SSW 23:04:15 67° WNW 23:10:30 10° N
Cosmos 1470 3.4 23:01:42 10° NNW 23:04:12 36° WNW 23:04:12 36° WNW
SeaSat 1 2.3 23:03:53 53° S 23:04:58 73° WSW 23:09:54 10° NNW
Intercosmos 24 3.9 23:04:10 10° N 23:08:41 66° ENE 23:09:11 59° ESE
Cosmos 2333 Rocket 4.2 23:06:18 10° WNW 23:08:43 13° W 23:09:39 12° WSW
Cosmos 2221 2.4 23:09:57 64° WSW 23:10:22 71° WNW 23:14:34 10° N
Cosmos 1842 4.2 23:13:51 30° WNW 23:13:51 30° WNW 23:16:23 10° N
Cosmos 841 Rocket 3.5 23:12:28 49° SSE 23:13:42 66° ESE 23:18:54 10° NNE
CZ-2C R/B 2.7 23:16:22 46° SSW 23:17:41 59° W 23:22:53 10° NNW
Alouette 2 Rocket 4.0 23:15:19 10° N 23:18:48 47° ENE 23:19:47 37° ESE
Meteor 1-19 Rocket 4.2 23:17:12 44° SSW 23:19:08 79° WNW 23:25:03 10° N
BREEZE-M DEB (TANK) 3.4 23:13:35 10° W 23:19:36 57° SSW 23:24:59 10° ESE
NOSS 0 Rocket 3.8 23:18:55 10° NNW 23:25:08 84° WSW 23:28:04 33° SSE
Cosmos 1975 3.8 23:25:17 10° NNW 23:28:17 31° W 23:28:17 31° W
DELTA 2 DEB (DPAF) 3.6 23:25:16 10° NNE 23:28:49 64° ESE 23:28:50 64° ESE
Cosmos 1655 Rocket 4.1 23:23:31 10° N 23:29:45 72° ENE 23:32:53 31° SSE
Cosmos 2266 Rocket 4.1 23:26:27 10° NNW 23:32:23 60° W 23:34:28 39° SSW
Cosmos 2322 3.9 23:28:19 10° NW 23:33:52 53° WSW 23:35:16 42° SSW
Cosmos 1812 Rocket 3.9 23:34:01 47° WSW 23:34:50 55° WNW 23:39:12 10° N
Cosmos 2297 Rocket 2.7 23:33:58 35° SSE 23:35:44 46° ESE 23:41:07 10° NE
Cosmos 44 3.9 23:32:35 10° NW 23:37:38 42° WSW 23:38:08 41° SW
Cosmos 858 Rocket 4.4 23:32:35 10° NNW 23:37:47 81° WSW 23:39:32 42° SSE
Cosmos 1271 Rocket 4.0 23:38:07 24° WNW 23:38:17 25° WNW 23:41:09 10° NNW
Meteor 2-20 Rocket 4.3 23:40:52 39° S 23:43:08 83° E 23:48:54 10° NNE
RESURS DK-1 2.6 23:40:40 10° NW 23:44:13 47° W 23:44:13 47° W
Cosmos 1937 Rocket 3.7 23:39:37 10° NNW 23:44:37 52° WSW 23:45:41 44° SSW
Cosmos 2360 Rocket 4.3 23:44:01 10° W 23:45:26 11° W 23:45:57 11° W
Lacrosse 4 Rocket 3.0 23:46:25 20° ESE 23:46:53 20° ESE 23:49:51 10° ENE
Meteor 1-11 Rocket 4.2 23:42:25 10° NNW 23:47:52 46° W 23:49:32 36° SW
ISS -1.3 23:50:53 13° ESE 23:50:53 13° ESE 23:51:20 10° ESE
GP-B 4.1 23:44:31 10° NNW 23:48:24 32° WNW 23:49:14 29° W
NOSS 8 (H) 4.4 23:47:18 10° NW 23:49:51 63° N 23:49:51 63° N
Cosmos 1066 Rocket 4.5 23:49:22 33° SSE 23:51:35 57° E 23:56:55 10° NNE
